Powrót do katalogu

IRIDIUM 141

AktywnyŁącznośćPO
NORAD 43077·PAYLOAD·🇺🇸 United States

Wystrzelony Dec 23, 2017 z Vandenberg Space Force Base

Loading…

Następne Przeloty (najbliższe 24 godziny)

TLE

ŚwieżeSource: CelesTrak SupGP

Epoka: Sep 14, 2026, 14:17 UTC

1 43077C 17083H   26257.59548611 -.00000157  00000+0 -55965-4 0  2576
2 43077  86.3913 284.6119 0002306  94.3655   7.4774 14.34218987    14

Śledź IRIDIUM 141 w czasie rzeczywistym z AllMySat

Download on the App Store